Tracking 18851 objects as of 25-Nov-2017
HD Live streaming from Space Station
objects crossing your sky now

FENGYUN 1C DEB

Track FENGYUN 1C DEB now!
10-day predictions


NORAD ID: 35230
Int'l Code: 1999-025DQN
Perigee: 762.4 km
Apogee: 857.4 km
Inclination: 98.3 °
Period: 100.9 minutes
Semi major axis: 7180 km
RCS: 0.0022 m2 (small)
Launch date: May 10, 1999
Source: People's Republic of China (PRC)
Launch site: Taiyaun Space Center, China (TSC)

Note: This is SATELLITE DEBRIS
aabbcc
Your satellite tracking list
Your tracking list is empty




NASA's NSSDC Master Catalog

Two Line Element Set (TLE):
1 35230U 99025DQN 17328.48818238 +.00001272 +00000-0 +53062-3 0  9992
2 35230 098.3425 163.1479 0066204 275.5960 083.7674 14.26705093300969
Source of the keplerian elements: AFSPC